Year,Month,Day,Hour,Minute,Value (Times are PST for temperature in C)
2007,08,14,00,00,14.30
2007,08,14,00,01,14.30
2007,08,14,00,02,14.30
2007,08,14,00,03,14.30
2007,08,14,00,04,14.30
2007,08,14,00,05,14.30
2007,08,14,00,06,14.30
2007,08,14,00,07,14.30
2007,08,14,00,08,14.20
2007,08,14,00,09,14.20
2007,08,14,00,10,14.20
2007,08,14,00,11,14.20
2007,08,14,00,12,14.20
2007,08,14,00,13,14.20
2007,08,14,00,14,14.20
2007,08,14,00,15,14.10
2007,08,14,00,16,14.10
2007,08,14,00,17,14.10
2007,08,14,00,18,14.10
2007,08,14,00,19,14.00
2007,08,14,00,20,14.00
2007,08,14,00,21,14.00
2007,08,14,00,22,13.90
2007,08,14,00,23,13.90
2007,08,14,00,24,13.90
2007,08,14,00,25,13.90
2007,08,14,00,26,13.80
2007,08,14,00,27,13.80
2007,08,14,00,28,13.80
2007,08,14,00,29,13.80
2007,08,14,00,30,13.80
2007,08,14,00,31,13.70
2007,08,14,00,32,13.70
2007,08,14,00,33,13.70
2007,08,14,00,34,13.70
2007,08,14,00,35,13.70
2007,08,14,00,36,13.70
2007,08,14,00,37,13.60
2007,08,14,00,38,13.60
2007,08,14,00,39,13.60
2007,08,14,00,40,13.60
2007,08,14,00,41,13.60
2007,08,14,00,42,13.60
2007,08,14,00,43,13.60
2007,08,14,00,44,13.50
2007,08,14,00,45,13.50
2007,08,14,00,46,13.50
2007,08,14,00,47,13.50
2007,08,14,00,48,13.50
2007,08,14,00,49,13.50
2007,08,14,00,50,13.50
2007,08,14,00,51,13.50
2007,08,14,00,52,13.50
2007,08,14,00,53,13.50
2007,08,14,00,54,13.50
2007,08,14,00,55,13.50
2007,08,14,00,56,13.50
2007,08,14,00,57,13.50
2007,08,14,00,58,13.50
2007,08,14,00,59,13.50
2007,08,14,01,00,13.50
2007,08,14,01,01,13.40
2007,08,14,01,02,13.40
2007,08,14,01,03,13.40
2007,08,14,01,04,13.40
2007,08,14,01,05,13.40
2007,08,14,01,06,13.40
2007,08,14,01,07,13.40
2007,08,14,01,08,13.40
2007,08,14,01,09,13.30
2007,08,14,01,10,13.30
2007,08,14,01,11,13.30
2007,08,14,01,12,13.30
2007,08,14,01,13,13.30
2007,08,14,01,14,13.20
2007,08,14,01,15,13.20
2007,08,14,01,16,13.20
2007,08,14,01,17,13.20
2007,08,14,01,18,13.20
2007,08,14,01,19,13.20
2007,08,14,01,20,13.10
2007,08,14,01,21,13.10
2007,08,14,01,22,13.10
2007,08,14,01,23,13.10
2007,08,14,01,24,13.10
2007,08,14,01,25,13.10
2007,08,14,01,26,13.10
2007,08,14,01,27,13.10
2007,08,14,01,28,13.10
2007,08,14,01,29,13.10
2007,08,14,01,30,13.00
2007,08,14,01,31,13.00
2007,08,14,01,32,13.00
2007,08,14,01,33,13.00
2007,08,14,01,34,13.00
2007,08,14,01,35,13.00
2007,08,14,01,36,12.90
2007,08,14,01,37,13.00
2007,08,14,01,38,13.00
2007,08,14,01,39,13.00
2007,08,14,01,40,13.00
2007,08,14,01,41,13.00
2007,08,14,01,42,13.00
2007,08,14,01,43,13.00
2007,08,14,01,44,13.00
2007,08,14,01,45,13.00
2007,08,14,01,46,13.00
2007,08,14,01,47,12.90
2007,08,14,01,48,12.90
2007,08,14,01,49,12.90
2007,08,14,01,50,12.90
2007,08,14,01,51,12.90
2007,08,14,01,52,12.90
2007,08,14,01,53,12.90
2007,08,14,01,54,12.90
2007,08,14,01,55,12.90
2007,08,14,01,56,12.90
2007,08,14,01,57,12.90
2007,08,14,01,58,13.00
2007,08,14,01,59,13.00
2007,08,14,02,00,13.00
2007,08,14,02,01,13.00
2007,08,14,02,02,13.00
2007,08,14,02,03,13.00
2007,08,14,02,04,13.00
2007,08,14,02,05,13.00
2007,08,14,02,06,13.00
2007,08,14,02,07,13.00
2007,08,14,02,08,12.90
2007,08,14,02,09,13.00
2007,08,14,02,10,13.00
2007,08,14,02,11,13.00
2007,08,14,02,12,12.90
2007,08,14,02,13,12.90
2007,08,14,02,14,12.90
2007,08,14,02,15,12.90
2007,08,14,02,16,12.90
2007,08,14,02,17,12.90
2007,08,14,02,18,12.80
2007,08,14,02,19,12.80
2007,08,14,02,20,12.80
2007,08,14,02,21,12.80
2007,08,14,02,22,12.80
2007,08,14,02,23,12.70
2007,08,14,02,24,12.70
2007,08,14,02,25,12.70
2007,08,14,02,26,12.70
2007,08,14,02,27,12.70
2007,08,14,02,28,12.60
2007,08,14,02,29,12.60
2007,08,14,02,30,12.60
2007,08,14,02,31,12.60
2007,08,14,02,32,12.60
2007,08,14,02,33,12.60
2007,08,14,02,34,12.60
2007,08,14,02,35,12.60
2007,08,14,02,36,12.50
2007,08,14,02,37,12.50
2007,08,14,02,38,12.50
2007,08,14,02,39,12.50
2007,08,14,02,40,12.50
2007,08,14,02,41,12.50
2007,08,14,02,42,12.40
2007,08,14,02,43,12.40
2007,08,14,02,44,12.40
2007,08,14,02,45,12.40
2007,08,14,02,46,12.40
2007,08,14,02,47,12.40
2007,08,14,02,48,12.40
2007,08,14,02,49,12.30
2007,08,14,02,50,12.30
2007,08,14,02,51,12.30
2007,08,14,02,52,12.30
2007,08,14,02,53,12.30
2007,08,14,02,54,12.30
2007,08,14,02,55,12.30
2007,08,14,02,56,12.30
2007,08,14,02,57,12.30
2007,08,14,02,58,12.30
2007,08,14,02,59,12.20
2007,08,14,03,00,12.20
2007,08,14,03,01,12.20
2007,08,14,03,02,12.20
2007,08,14,03,03,12.20
2007,08,14,03,04,12.10
2007,08,14,03,05,12.10
2007,08,14,03,06,12.10
2007,08,14,03,07,12.10
2007,08,14,03,08,12.00
2007,08,14,03,09,12.00
2007,08,14,03,10,12.00
2007,08,14,03,11,11.90
2007,08,14,03,12,11.90
2007,08,14,03,13,11.90
2007,08,14,03,14,11.90
2007,08,14,03,15,11.90
2007,08,14,03,16,11.90
2007,08,14,03,17,11.80
2007,08,14,03,18,11.80
2007,08,14,03,19,11.80
2007,08,14,03,20,11.80
2007,08,14,03,21,11.80
2007,08,14,03,22,11.80
2007,08,14,03,23,11.80
2007,08,14,03,24,11.80
2007,08,14,03,25,11.80
2007,08,14,03,26,11.80
2007,08,14,03,27,11.70
2007,08,14,03,28,11.70
2007,08,14,03,29,11.70
2007,08,14,03,30,11.70
2007,08,14,03,31,11.70
2007,08,14,03,32,11.70
2007,08,14,03,33,11.70
2007,08,14,03,34,11.60
2007,08,14,03,35,11.60
2007,08,14,03,36,11.60
2007,08,14,03,37,11.60
2007,08,14,03,38,11.50
2007,08,14,03,39,11.50
2007,08,14,03,40,11.50
2007,08,14,03,41,11.40
2007,08,14,03,42,11.40
2007,08,14,03,43,11.40
2007,08,14,03,44,11.40
2007,08,14,03,45,11.40
2007,08,14,03,46,11.40
2007,08,14,03,47,11.40
2007,08,14,03,48,11.40
2007,08,14,03,49,11.30
2007,08,14,03,50,11.30
2007,08,14,03,51,11.30
2007,08,14,03,52,11.30
2007,08,14,03,53,11.30
2007,08,14,03,54,11.30
2007,08,14,03,55,11.30
2007,08,14,03,56,11.30
2007,08,14,03,57,11.30
2007,08,14,03,58,11.30
2007,08,14,03,59,11.30
2007,08,14,04,00,11.30
2007,08,14,04,01,11.30
2007,08,14,04,02,11.30
2007,08,14,04,03,11.20
2007,08,14,04,04,11.20
2007,08,14,04,05,11.20
2007,08,14,04,06,11.20
2007,08,14,04,07,11.10
2007,08,14,04,08,11.10
2007,08,14,04,09,11.10
2007,08,14,04,10,11.10
2007,08,14,04,11,11.10
2007,08,14,04,12,11.10
2007,08,14,04,13,11.00
2007,08,14,04,14,11.00
2007,08,14,04,15,11.00
2007,08,14,04,16,11.00
2007,08,14,04,17,11.00
2007,08,14,04,18,11.00
2007,08,14,04,19,11.00
2007,08,14,04,20,11.00
2007,08,14,04,21,10.90
2007,08,14,04,22,10.90
2007,08,14,04,23,10.90
2007,08,14,04,24,10.90
2007,08,14,04,25,10.90
2007,08,14,04,26,10.90
2007,08,14,04,27,10.90
2007,08,14,04,28,10.90
2007,08,14,04,29,10.90
2007,08,14,04,30,10.90
2007,08,14,04,31,10.90
2007,08,14,04,32,10.90
2007,08,14,04,33,10.90
2007,08,14,04,34,10.90
2007,08,14,04,35,10.90
2007,08,14,04,36,10.80
2007,08,14,04,37,10.80
2007,08,14,04,38,10.90
2007,08,14,04,39,10.80
2007,08,14,04,40,10.80
2007,08,14,04,41,10.80
2007,08,14,04,42,10.80
2007,08,14,04,43,10.80
2007,08,14,04,44,10.80
2007,08,14,04,45,10.80
2007,08,14,04,46,10.80
2007,08,14,04,47,10.80
2007,08,14,04,48,10.80
2007,08,14,04,49,10.80
2007,08,14,04,50,10.80
2007,08,14,04,51,10.80
2007,08,14,04,52,10.80
2007,08,14,04,53,10.80
2007,08,14,04,54,10.80
2007,08,14,04,55,10.70
2007,08,14,04,56,10.70
2007,08,14,04,57,10.70
2007,08,14,04,58,10.70
2007,08,14,04,59,10.70
2007,08,14,05,00,10.70
2007,08,14,05,01,10.70
2007,08,14,05,02,10.70
2007,08,14,05,03,10.70
2007,08,14,05,04,10.70
2007,08,14,05,05,10.70
2007,08,14,05,06,10.70
2007,08,14,05,07,10.70
2007,08,14,05,08,10.70
2007,08,14,05,09,10.70
2007,08,14,05,10,10.70
2007,08,14,05,11,10.70
2007,08,14,05,12,10.60
2007,08,14,05,13,10.60
2007,08,14,05,14,10.60
2007,08,14,05,15,10.60
2007,08,14,05,16,10.60
2007,08,14,05,17,10.60
2007,08,14,05,18,10.60
2007,08,14,05,19,10.60
2007,08,14,05,20,10.70
2007,08,14,05,21,10.70
2007,08,14,05,22,10.70
2007,08,14,05,23,10.70
2007,08,14,05,24,10.70
2007,08,14,05,25,10.70
2007,08,14,05,26,10.70
2007,08,14,05,27,10.70
2007,08,14,05,28,10.70
2007,08,14,05,29,10.60
2007,08,14,05,30,10.60
2007,08,14,05,31,10.60
2007,08,14,05,32,10.60
2007,08,14,05,33,10.60
2007,08,14,05,34,10.60
2007,08,14,05,35,10.50
2007,08,14,05,36,10.50
2007,08,14,05,37,10.50
2007,08,14,05,38,10.50
2007,08,14,05,39,10.50
2007,08,14,05,40,10.50
2007,08,14,05,41,10.50
2007,08,14,05,42,10.50
2007,08,14,05,43,10.50
2007,08,14,05,44,10.50
2007,08,14,05,45,10.50
2007,08,14,05,46,10.50
2007,08,14,05,47,10.50
2007,08,14,05,48,10.50
2007,08,14,05,49,10.50
2007,08,14,05,50,10.50
2007,08,14,05,51,10.40
2007,08,14,05,52,10.50
2007,08,14,05,53,10.40
2007,08,14,05,54,10.40
2007,08,14,05,55,10.40
2007,08,14,05,56,10.40
2007,08,14,05,57,10.40
2007,08,14,05,58,10.40
2007,08,14,05,59,10.40
2007,08,14,06,00,10.40
2007,08,14,06,01,10.40
2007,08,14,06,02,10.30
2007,08,14,06,03,10.30
2007,08,14,06,04,10.30
2007,08,14,06,05,10.30
2007,08,14,06,06,10.30
2007,08,14,06,07,10.30
2007,08,14,06,08,10.30
2007,08,14,06,09,10.20
2007,08,14,06,10,10.20
2007,08,14,06,11,10.20
2007,08,14,06,12,10.20
2007,08,14,06,13,10.20
2007,08,14,06,14,10.20
2007,08,14,06,15,10.20
2007,08,14,06,16,10.20
2007,08,14,06,17,10.20
2007,08,14,06,18,10.20
2007,08,14,06,19,10.20
2007,08,14,06,20,10.20
2007,08,14,06,21,10.20
2007,08,14,06,22,10.20
2007,08,14,06,23,10.20
2007,08,14,06,24,10.20
2007,08,14,06,25,10.20
2007,08,14,06,26,10.20
2007,08,14,06,27,10.20
2007,08,14,06,28,10.20
2007,08,14,06,29,10.10
2007,08,14,06,30,10.10
2007,08,14,06,31,10.20
2007,08,14,06,32,10.20
2007,08,14,06,33,10.20
2007,08,14,06,34,10.20
2007,08,14,06,35,10.20
2007,08,14,06,36,10.20
2007,08,14,06,37,10.10
2007,08,14,06,38,10.10
2007,08,14,06,39,10.10
2007,08,14,06,40,10.10
2007,08,14,06,41,10.10
2007,08,14,06,42,10.10
2007,08,14,06,43,10.10
2007,08,14,06,44,10.10
2007,08,14,06,45,10.10
2007,08,14,06,46,10.10
2007,08,14,06,47,10.20
2007,08,14,06,48,10.20
2007,08,14,06,49,10.20
2007,08,14,06,50,10.20
2007,08,14,06,51,10.20
2007,08,14,06,52,10.30
2007,08,14,06,53,10.30
2007,08,14,06,54,10.30
2007,08,14,06,55,10.40
2007,08,14,06,56,10.50
2007,08,14,06,57,10.60
2007,08,14,06,58,10.60
2007,08,14,06,59,10.70
2007,08,14,07,00,10.80
2007,08,14,07,01,10.80
2007,08,14,07,02,10.80
2007,08,14,07,03,10.90
2007,08,14,07,04,11.00
2007,08,14,07,05,11.00
2007,08,14,07,06,11.10
2007,08,14,07,07,11.10
2007,08,14,07,08,11.20
2007,08,14,07,09,11.30
2007,08,14,07,10,11.30
2007,08,14,07,11,11.40
2007,08,14,07,12,11.40
2007,08,14,07,13,11.50
2007,08,14,07,14,11.60
2007,08,14,07,15,11.60
2007,08,14,07,16,11.70
2007,08,14,07,17,11.70
2007,08,14,07,18,11.80
2007,08,14,07,19,11.90
2007,08,14,07,20,12.00
2007,08,14,07,21,12.10
2007,08,14,07,22,12.20
2007,08,14,07,23,12.30
2007,08,14,07,24,12.40
2007,08,14,07,25,12.50
2007,08,14,07,26,12.60
2007,08,14,07,27,12.70
2007,08,14,07,28,12.80
2007,08,14,07,29,12.80
2007,08,14,07,30,12.90
2007,08,14,07,31,12.90
2007,08,14,07,32,13.00
2007,08,14,07,33,13.10
2007,08,14,07,34,13.10
2007,08,14,07,35,13.20
2007,08,14,07,36,13.20
2007,08,14,07,37,13.30
2007,08,14,07,38,13.40
2007,08,14,07,39,13.50
2007,08,14,07,40,13.50
2007,08,14,07,41,13.60
2007,08,14,07,42,13.70
2007,08,14,07,43,13.80
2007,08,14,07,44,13.90
2007,08,14,07,45,14.00
2007,08,14,07,46,14.20
2007,08,14,07,47,14.30
2007,08,14,07,48,14.40
2007,08,14,07,49,14.50
2007,08,14,07,50,14.50
2007,08,14,07,51,14.60
2007,08,14,07,52,14.60
2007,08,14,07,53,14.70
2007,08,14,07,54,14.70
2007,08,14,07,55,14.70
2007,08,14,07,56,14.80
2007,08,14,07,57,14.80
2007,08,14,07,58,14.90
2007,08,14,07,59,15.00
2007,08,14,08,00,15.00
2007,08,14,08,01,15.00
2007,08,14,08,02,15.00
2007,08,14,08,03,15.00
2007,08,14,08,04,15.10
2007,08,14,08,05,15.20
2007,08,14,08,06,15.30
2007,08,14,08,07,15.30
2007,08,14,08,08,15.40
2007,08,14,08,09,15.40
2007,08,14,08,10,15.50
2007,08,14,08,11,15.60
2007,08,14,08,12,15.70
2007,08,14,08,13,15.70
2007,08,14,08,14,15.70
2007,08,14,08,15,15.70
2007,08,14,08,16,15.80
2007,08,14,08,17,15.80
2007,08,14,08,18,15.90
2007,08,14,08,19,15.90
2007,08,14,08,20,16.00
2007,08,14,08,21,16.00
2007,08,14,08,22,16.10
2007,08,14,08,23,16.20
2007,08,14,08,24,16.20
2007,08,14,08,25,16.30
2007,08,14,08,26,16.30
2007,08,14,08,27,16.40
2007,08,14,08,28,16.50
2007,08,14,08,29,16.60
2007,08,14,08,30,16.60
2007,08,14,08,31,16.70
2007,08,14,08,32,16.80
2007,08,14,08,33,16.90
2007,08,14,08,34,17.10
2007,08,14,08,35,17.20
2007,08,14,08,36,17.40
2007,08,14,08,37,17.60
2007,08,14,08,38,17.70
2007,08,14,08,39,17.70
2007,08,14,08,40,17.80
2007,08,14,08,41,17.80
2007,08,14,08,42,17.90
2007,08,14,08,43,18.00
2007,08,14,08,44,18.10
2007,08,14,08,45,18.20
2007,08,14,08,46,18.20
2007,08,14,08,47,18.30
2007,08,14,08,48,18.40
2007,08,14,08,49,18.40
2007,08,14,08,50,18.40
2007,08,14,08,51,18.50
2007,08,14,08,52,18.60
2007,08,14,08,53,18.70
2007,08,14,08,54,18.80
2007,08,14,08,55,18.80
2007,08,14,08,56,18.90
2007,08,14,08,57,18.90
2007,08,14,08,58,19.00
2007,08,14,08,59,19.10
2007,08,14,09,00,19.10
2007,08,14,09,01,19.20
2007,08,14,09,02,19.30
2007,08,14,09,03,19.30
2007,08,14,09,04,19.40
2007,08,14,09,05,19.50
2007,08,14,09,06,19.60
2007,08,14,09,07,19.70
2007,08,14,09,08,19.70
2007,08,14,09,09,19.70
2007,08,14,09,10,19.80
2007,08,14,09,11,19.90
2007,08,14,09,12,19.90
2007,08,14,09,13,19.90
2007,08,14,09,14,20.00
2007,08,14,09,15,20.00
2007,08,14,09,16,20.00
2007,08,14,09,17,20.10
2007,08,14,09,18,20.00
2007,08,14,09,19,19.80
2007,08,14,09,20,19.70
2007,08,14,09,21,19.60
2007,08,14,09,22,19.50
2007,08,14,09,23,19.50
2007,08,14,09,24,19.50
2007,08,14,09,25,19.50
2007,08,14,09,26,19.60
2007,08,14,09,27,19.70
2007,08,14,09,28,19.80
2007,08,14,09,29,19.80
2007,08,14,09,30,19.90
2007,08,14,09,31,19.90
2007,08,14,09,32,19.80
2007,08,14,09,33,19.70
2007,08,14,09,34,19.70
2007,08,14,09,35,19.60
2007,08,14,09,36,19.60
2007,08,14,09,37,19.60
2007,08,14,09,38,19.70
2007,08,14,09,39,19.80
2007,08,14,09,40,19.90
2007,08,14,09,41,20.00
2007,08,14,09,42,20.00
2007,08,14,09,43,20.20
2007,08,14,09,44,20.30
2007,08,14,09,45,20.40
2007,08,14,09,46,20.50
2007,08,14,09,47,20.60
2007,08,14,09,48,20.60
2007,08,14,09,49,20.60
2007,08,14,09,50,20.60
2007,08,14,09,51,20.70
2007,08,14,09,52,20.80
2007,08,14,09,53,20.90
2007,08,14,09,54,21.00
2007,08,14,09,55,21.10
2007,08,14,09,56,21.20
2007,08,14,09,57,21.30
2007,08,14,09,58,21.30
2007,08,14,09,59,21.30
2007,08,14,10,00,21.30
2007,08,14,10,01,21.40
2007,08,14,10,02,21.40
2007,08,14,10,03,21.50
2007,08,14,10,04,21.60
2007,08,14,10,05,21.60
2007,08,14,10,06,21.60
2007,08,14,10,07,21.70
2007,08,14,10,08,21.70
2007,08,14,10,09,21.70
2007,08,14,10,10,21.70
2007,08,14,10,11,21.80
2007,08,14,10,12,21.80
2007,08,14,10,13,21.90
2007,08,14,10,14,21.90
2007,08,14,10,15,21.90
2007,08,14,10,16,21.90
2007,08,14,10,17,21.90
2007,08,14,10,18,22.00
2007,08,14,10,19,22.10
2007,08,14,10,20,22.20
2007,08,14,10,21,22.30
2007,08,14,10,22,22.40
2007,08,14,10,23,22.50
2007,08,14,10,24,22.50
2007,08,14,10,25,22.60
2007,08,14,10,26,22.60
2007,08,14,10,27,22.60
2007,08,14,10,28,22.70
2007,08,14,10,29,22.70
2007,08,14,10,30,22.60
2007,08,14,10,31,22.30
2007,08,14,10,32,22.00
2007,08,14,10,33,21.80
2007,08,14,10,34,21.50
2007,08,14,10,35,21.10
2007,08,14,10,36,20.80
2007,08,14,10,37,20.50
2007,08,14,10,38,20.20
2007,08,14,10,39,20.10
2007,08,14,10,40,20.00
2007,08,14,10,41,20.00
2007,08,14,10,42,19.90
2007,08,14,10,43,19.80
2007,08,14,10,44,19.80
2007,08,14,10,45,19.70
2007,08,14,10,46,19.70
2007,08,14,10,47,19.80
2007,08,14,10,48,19.90
2007,08,14,10,49,20.00
2007,08,14,10,50,20.00
2007,08,14,10,51,20.00
2007,08,14,10,52,20.10
2007,08,14,10,53,20.10
2007,08,14,10,54,20.20
2007,08,14,10,55,20.30
2007,08,14,10,56,20.40
2007,08,14,10,57,20.50
2007,08,14,10,58,20.50
2007,08,14,10,59,20.50
2007,08,14,11,00,20.50
2007,08,14,11,01,20.50
2007,08,14,11,02,20.40
2007,08,14,11,03,20.40
2007,08,14,11,04,20.30
2007,08,14,11,05,20.30
2007,08,14,11,06,20.30
2007,08,14,11,07,20.30
2007,08,14,11,08,20.30
2007,08,14,11,09,20.30
2007,08,14,11,10,20.40
2007,08,14,11,11,20.40
2007,08,14,11,12,20.50
2007,08,14,11,13,20.60
2007,08,14,11,14,20.70
2007,08,14,11,15,20.80
2007,08,14,11,16,20.90
2007,08,14,11,17,21.00
2007,08,14,11,18,21.10
2007,08,14,11,19,21.00
2007,08,14,11,20,21.00
2007,08,14,11,21,20.90
2007,08,14,11,22,20.80
2007,08,14,11,23,20.70
2007,08,14,11,24,20.50
2007,08,14,11,25,20.40
2007,08,14,11,26,20.40
2007,08,14,11,27,20.40
2007,08,14,11,28,20.40
2007,08,14,11,29,20.40
2007,08,14,11,30,20.50
2007,08,14,11,31,20.50
2007,08,14,11,32,20.40
2007,08,14,11,33,20.50
2007,08,14,11,34,20.60
2007,08,14,11,35,20.70
2007,08,14,11,36,20.70
2007,08,14,11,37,20.60
2007,08,14,11,38,20.50
2007,08,14,11,39,20.50
2007,08,14,11,40,20.50
2007,08,14,11,41,20.50
2007,08,14,11,42,20.50
2007,08,14,11,43,20.50
2007,08,14,11,44,20.50
2007,08,14,11,45,20.50
2007,08,14,11,46,20.50
2007,08,14,11,47,20.50
2007,08,14,16,01,23.30
2007,08,14,16,02,23.30
2007,08,14,16,03,23.30
2007,08,14,16,04,23.30
2007,08,14,16,05,23.30
2007,08,14,16,06,23.30
2007,08,14,16,07,23.40
2007,08,14,16,08,23.40
2007,08,14,16,09,23.50
2007,08,14,16,10,23.50
2007,08,14,16,11,23.60
2007,08,14,16,12,23.60
2007,08,14,16,13,23.60
2007,08,14,16,14,23.60
2007,08,14,16,15,23.70
2007,08,14,16,16,23.80
2007,08,14,16,17,24.00
2007,08,14,16,18,24.00
2007,08,14,16,19,24.10
2007,08,14,16,20,24.10
2007,08,14,16,21,24.20
2007,08,14,16,22,24.30
2007,08,14,16,23,24.30
2007,08,14,16,24,24.30
2007,08,14,16,25,24.30
2007,08,14,16,26,24.30
2007,08,14,16,27,24.30
2007,08,14,16,28,24.40
2007,08,14,16,29,24.40
2007,08,14,16,30,24.40
2007,08,14,16,31,24.40
2007,08,14,16,32,24.50
2007,08,14,16,33,24.60
2007,08,14,16,34,24.70
2007,08,14,16,35,24.70
2007,08,14,16,36,24.70
2007,08,14,16,37,24.70
2007,08,14,16,38,24.80
2007,08,14,16,39,24.90
2007,08,14,16,40,24.90
2007,08,14,16,41,25.00
2007,08,14,16,42,25.10
2007,08,14,16,43,25.10
2007,08,14,16,44,25.10
2007,08,14,16,45,25.00
2007,08,14,16,46,24.90
2007,08,14,16,47,24.80
2007,08,14,16,48,24.70
2007,08,14,16,49,24.60
2007,08,14,16,50,24.50
2007,08,14,16,51,24.40
2007,08,14,16,52,24.40
2007,08,14,16,53,24.40
2007,08,14,16,54,24.30
2007,08,14,16,55,24.20
2007,08,14,16,56,24.10
2007,08,14,16,57,24.00
2007,08,14,16,58,24.10
2007,08,14,16,59,24.00
2007,08,14,17,00,23.90
2007,08,14,17,01,23.90
2007,08,14,17,02,23.90
2007,08,14,17,03,24.00
2007,08,14,17,04,24.10
2007,08,14,17,05,24.20
2007,08,14,17,06,24.20
2007,08,14,17,07,24.20
2007,08,14,17,08,24.30
2007,08,14,17,09,24.30
2007,08,14,17,10,24.30
2007,08,14,17,11,24.30
2007,08,14,17,12,24.40
2007,08,14,17,13,24.40
2007,08,14,17,14,24.40
2007,08,14,17,15,24.50
2007,08,14,17,16,24.50
2007,08,14,17,17,24.40
2007,08,14,17,18,24.30
2007,08,14,17,19,24.30
2007,08,14,17,20,24.20
2007,08,14,17,21,24.20
2007,08,14,17,22,24.20
2007,08,14,17,23,24.20
2007,08,14,17,24,24.10
2007,08,14,17,25,24.00
2007,08,14,17,26,23.90
2007,08,14,17,27,23.90
2007,08,14,17,28,23.90
2007,08,14,17,29,24.00
2007,08,14,17,30,24.00
2007,08,14,17,31,24.00
2007,08,14,17,32,24.00
2007,08,14,17,33,23.90
2007,08,14,17,34,23.90
2007,08,14,17,35,23.80
2007,08,14,17,36,23.70
2007,08,14,17,37,23.70
2007,08,14,17,38,23.70
2007,08,14,17,39,23.70
2007,08,14,17,40,23.70
2007,08,14,17,41,23.80
2007,08,14,17,42,23.80
2007,08,14,17,43,23.90
2007,08,14,17,44,24.10
2007,08,14,17,45,24.20
2007,08,14,17,46,24.30
2007,08,14,17,47,24.40
2007,08,14,17,48,24.50
2007,08,14,17,49,24.50
2007,08,14,17,50,24.60
2007,08,14,17,51,24.70
2007,08,14,17,52,24.60
2007,08,14,17,53,24.70
2007,08,14,17,54,24.70
2007,08,14,17,55,24.70
2007,08,14,17,56,24.70
2007,08,14,17,57,24.60
2007,08,14,17,58,24.50
2007,08,14,17,59,24.40
2007,08,14,18,00,24.40
2007,08,14,18,01,24.30
2007,08,14,18,02,24.20
2007,08,14,18,03,24.20
2007,08,14,18,04,24.20
2007,08,14,18,05,24.30
2007,08,14,18,06,24.30
2007,08,14,18,07,24.40
2007,08,14,18,08,24.40
2007,08,14,18,09,24.50
2007,08,14,18,10,24.50
2007,08,14,18,11,24.50
2007,08,14,18,12,24.60
2007,08,14,18,13,24.60
2007,08,14,18,14,24.60
2007,08,14,18,15,24.50
2007,08,14,18,16,24.50
2007,08,14,18,17,24.50
2007,08,14,18,18,24.50
2007,08,14,18,19,24.50
2007,08,14,18,20,24.50
2007,08,14,18,21,24.50
2007,08,14,18,22,24.50
2007,08,14,18,23,24.50
2007,08,14,18,24,24.60
2007,08,14,18,25,24.50
2007,08,14,18,26,24.40
2007,08,14,18,27,24.40
2007,08,14,18,28,24.30
2007,08,14,18,29,24.30
2007,08,14,18,30,24.30
2007,08,14,18,31,24.20
2007,08,14,18,32,24.20
2007,08,14,18,33,24.10
2007,08,14,18,34,24.10
2007,08,14,18,35,24.10
2007,08,14,18,36,24.10
2007,08,14,18,37,24.10
2007,08,14,18,38,24.20
2007,08,14,18,39,24.20
2007,08,14,18,40,24.30
2007,08,14,18,41,24.40
2007,08,14,18,42,24.40
2007,08,14,18,43,24.40
2007,08,14,18,44,24.40
2007,08,14,18,45,24.30
2007,08,14,18,46,24.30
2007,08,14,18,47,24.30
2007,08,14,18,48,24.30
2007,08,14,18,49,24.30
2007,08,14,18,50,24.30
2007,08,14,18,51,24.30
2007,08,14,18,52,24.40
2007,08,14,18,53,24.50
2007,08,14,18,54,24.60
2007,08,14,18,55,24.60
2007,08,14,18,56,24.60
2007,08,14,18,57,24.50
2007,08,14,18,58,24.50
2007,08,14,18,59,24.50
2007,08,14,19,00,24.60
2007,08,14,19,01,24.60
2007,08,14,19,02,24.60
2007,08,14,19,03,24.60
2007,08,14,19,04,24.60
2007,08,14,19,05,24.60
2007,08,14,19,06,24.60
2007,08,14,19,07,24.60
2007,08,14,19,08,24.60
2007,08,14,19,09,24.60
2007,08,14,19,10,24.60
2007,08,14,19,11,24.60
2007,08,14,19,12,24.60
2007,08,14,19,13,24.50
2007,08,14,19,14,24.50
2007,08,14,19,15,24.60
2007,08,14,19,16,24.60
2007,08,14,19,17,24.60
2007,08,14,19,18,24.70
2007,08,14,19,19,24.70
2007,08,14,19,20,24.70
2007,08,14,19,21,24.70
2007,08,14,19,22,24.70
2007,08,14,19,23,24.70
2007,08,14,19,24,24.70
2007,08,14,19,25,24.70
2007,08,14,19,26,24.60
2007,08,14,19,27,24.60
2007,08,14,19,28,24.50
2007,08,14,19,29,24.40
2007,08,14,19,30,24.40
2007,08,14,19,31,24.40
2007,08,14,19,32,24.40
2007,08,14,19,33,24.40
2007,08,14,19,34,24.40
2007,08,14,19,35,24.30
2007,08,14,19,36,24.30
2007,08,14,19,37,24.30
2007,08,14,19,38,24.30
2007,08,14,19,39,24.30
2007,08,14,19,40,24.30
2007,08,14,19,41,24.30
2007,08,14,19,42,24.30
2007,08,14,19,43,24.30
2007,08,14,19,44,24.30
2007,08,14,19,45,24.20
2007,08,14,19,46,24.20
2007,08,14,19,47,24.20
2007,08,14,19,48,24.20
2007,08,14,19,49,24.20
2007,08,14,19,50,24.20
2007,08,14,19,51,24.20
2007,08,14,19,52,24.20
2007,08,14,19,53,24.20
2007,08,14,19,54,24.20
2007,08,14,19,55,24.30
2007,08,14,19,56,24.30
2007,08,14,19,57,24.30
2007,08,14,19,58,24.30
2007,08,14,19,59,24.30
2007,08,14,20,00,24.30
2007,08,14,20,01,24.30
2007,08,14,20,02,24.30
2007,08,14,20,03,24.20
2007,08,14,20,04,24.20
2007,08,14,20,05,24.20
2007,08,14,20,06,24.10
2007,08,14,20,07,24.10
2007,08,14,20,08,24.10
2007,08,14,20,09,24.00
2007,08,14,20,10,24.00
2007,08,14,20,11,24.00
2007,08,14,20,12,23.90
2007,08,14,20,13,23.90
2007,08,14,20,14,23.80
2007,08,14,20,15,23.80
2007,08,14,20,16,23.70
2007,08,14,20,17,23.70
2007,08,14,20,18,23.50
2007,08,14,20,19,23.50
2007,08,14,20,20,23.40
2007,08,14,20,21,23.30
2007,08,14,20,22,23.20
2007,08,14,20,23,23.20
2007,08,14,20,24,23.10
2007,08,14,20,25,23.10
2007,08,14,20,26,23.00
2007,08,14,20,27,22.90
2007,08,14,20,28,22.80
2007,08,14,20,29,22.80
2007,08,14,20,30,22.70
2007,08,14,20,31,22.60
2007,08,14,20,32,22.50
2007,08,14,20,33,22.50
2007,08,14,20,34,22.40
2007,08,14,20,35,22.30
2007,08,14,20,36,22.20
2007,08,14,20,37,22.20
2007,08,14,20,38,22.10
2007,08,14,20,39,22.10
2007,08,14,20,40,22.00
2007,08,14,20,41,21.90
2007,08,14,20,42,21.90
2007,08,14,20,43,21.80
2007,08,14,20,44,21.80
2007,08,14,20,45,21.80
2007,08,14,20,46,21.70
2007,08,14,20,47,21.60
2007,08,14,20,48,21.50
2007,08,14,20,49,21.40
2007,08,14,20,50,21.40
2007,08,14,20,51,21.30
2007,08,14,20,52,21.30
2007,08,14,20,53,21.20
2007,08,14,20,54,21.10
2007,08,14,20,55,21.10
2007,08,14,20,56,21.00
2007,08,14,20,57,20.90
2007,08,14,20,58,20.90
2007,08,14,20,59,20.80
2007,08,14,21,00,20.80
2007,08,14,21,01,20.80
2007,08,14,21,02,20.80
2007,08,14,21,03,20.70
2007,08,14,21,04,20.70
2007,08,14,21,05,20.70
2007,08,14,21,06,20.70
2007,08,14,21,07,20.60
2007,08,14,21,08,20.60
2007,08,14,21,09,20.60
2007,08,14,21,10,20.50
2007,08,14,21,11,20.50
2007,08,14,21,12,20.50
2007,08,14,21,13,20.40
2007,08,14,21,14,20.40
2007,08,14,21,15,20.40
2007,08,14,21,16,20.30
2007,08,14,21,17,20.30
2007,08,14,21,18,20.30
2007,08,14,21,19,20.20
2007,08,14,21,20,20.20
2007,08,14,21,21,20.20
2007,08,14,21,22,20.20
2007,08,14,21,23,20.10
2007,08,14,21,24,20.10
2007,08,14,21,25,20.10
2007,08,14,21,26,20.10
2007,08,14,21,27,20.10
2007,08,14,21,28,20.00
2007,08,14,21,29,20.00
2007,08,14,21,30,20.00
2007,08,14,21,31,19.90
2007,08,14,21,32,19.90